Location: Santaluz Observatory
(32.9930°N, 117.1510°W)
Time: 15:34:03
(UTC-07:00)

Daily predictions for brighter satellites

Satellite Brightness Start Highest point End
(mag) Time Altitude Azimuth Time Altitude Azimuth Time Altitude Azimuth
Cosmos 1605 Rocket 4.3 19:21:49 10° SSE 19:27:43 46° E 19:33:42 10° NNE
Meteor 1-22 Rocket 4.3 19:23:12 10° S 19:28:59 80° E 19:35:01 10° N
Cosmos 1867 3.8 19:26:21 10° S 19:31:34 51° ESE 19:36:51 10° NE
Cosmos 2278 Rocket 2.4 19:26:03 10° SSW 19:31:43 81° WNW 19:37:25 10° NNE
SJ-6B 2.7 19:32:27 10° SSE 19:36:07 58° ENE 19:39:48 10° N
ATLAS 5 CENTAUR R/B 2.3 19:34:08 10° S 19:38:18 35° ESE 19:42:41 10° NE
Cosmos 2344 4.2 19:31:03 10° SW 19:38:39 63° WNW 19:46:51 10° NNE
Yuri Rocket 3.9 19:35:11 10° W 19:39:31 40° S 19:43:24 10° ESE
NOAA 12 4.3 19:36:59 10° S 19:42:17 77° WSW 19:47:36 10° NNW
Timation 1 Rocket 4.3 19:38:15 10° SSW 19:44:13 72° ESE 19:50:13 10° NNE
H-2A R/B 3.5 19:40:54 10° SE 19:44:24 33° ENE 19:47:58 10° N
Cosmos 2123 Rocket 4.0 19:40:40 10° N 19:46:57 66° E 19:53:09 10° SSE
CZ-3C R/B 3.9 19:41:36 10° WSW 19:47:12 15° SW 19:50:10 10° SSW
Cosmos 2297 3.7 19:43:20 10° S 19:48:54 61° ESE 19:54:33 10° NNE
Resurs 1-3 4.2 19:47:50 10° SE 19:51:49 36° ENE 19:55:50 10° N
Cosmos 1125 Rocket 3.4 19:51:27 10° S 19:56:37 74° ESE 20:01:48 10° NNE
FengYun 1-2 T 4.2 19:51:57 10° SSE 19:57:28 73° ENE 20:03:04 10° N
HJ-1C 3.3 19:56:50 10° SSE 20:00:14 85° ENE 20:03:39 10° N
Delta 128 4.1 19:55:51 10° WSW 20:00:15 45° S 20:03:09 19° ESE
Cosmos 1758 3.2 19:58:53 10° S 20:02:50 73° E 20:06:49 10° N
SeaSat 1 2.4 19:58:47 10° SE 20:03:39 66° ENE 20:08:32 10° NNW
Geosat 4.0 20:00:21 10° NNE 20:05:19 57° ESE 20:10:13 10° S
Cosmos 2082 Rocket 2.8 20:01:13 10° N 20:06:25 36° ENE 20:09:47 19° ESE
GPS 2-05 Rocket1 3.1 20:03:17 10° W 20:06:49 68° N 20:09:03 21° ENE
ALOS 2.5 20:02:29 10° S 20:07:08 74° WSW 20:11:49 10° NNW
Cosmos 1953 2.2 20:05:51 10° S 20:09:54 82° E 20:13:58 10° N
Cosmos 1271 Rocket 3.3 20:06:16 10° SSE 20:09:55 35° E 20:13:37 10° NNE
SL-27 R/B 4.2 20:08:20 10° NW 20:11:39 35° WSW 20:15:00 10° SSW
SAR-Lupe-4 4.2 20:15:34 31° ESE 20:16:21 35° ENE 20:19:39 10° N
Helios 1B rocket 2.6 20:13:14 10° NNE 20:17:15 49° E 20:21:13 10° S
Abrixas 3.2 20:15:24 10° NNW 20:18:01 33° NE 20:18:13 32° NE
Timation 2 Rocket 4.5 20:12:17 10° N 20:18:03 38° ENE 20:20:51 25° ESE
Cosmos 1459 Rocket 4.2 20:13:20 10° SSE 20:19:16 46° E 20:25:09 10° NNE
Tiangong 1 1.8 20:16:35 10° WNW 20:19:22 40° SW 20:20:18 30° S
Cosmos 1939 Rocket 4.5 20:20:09 19° ENE 20:20:09 19° ENE 20:22:35 10° NNE
Okean 3 Rocket 3.8 20:16:16 10° N 20:20:40 72° W 20:25:03 10° S
OAO 2 Rocket 3.9 20:17:34 10° SW 20:22:25 42° SSE 20:24:20 30° ESE
Meteor 1-29 3.3 20:19:36 10° NNE 20:22:56 42° E 20:23:14 41° ESE
Cosmos 1076 Rocket 3.3 20:20:02 10° N 20:24:16 76° E 20:28:04 13° S
Cosmos 1447 Rocket 4.4 20:18:20 10° N 20:24:28 73° E 20:30:36 10° SSE
Cosmos 1674 2.8 20:22:04 10° N 20:25:44 47° E 20:26:29 41° ESE
Cosmos 2173 Rocket 4.1 20:20:27 10° SSE 20:26:23 52° E 20:32:24 10° NNE
COSMOS 2487 2.5 20:27:11 10° N 20:30:41 55° ENE 20:30:55 54° E
Helios 1A 3.0 20:29:49 37° SE 20:31:11 55° ENE 20:35:16 10° N
ISS -2.3 20:29:34 10° WSW 20:32:34 34° NW 20:34:47 16° NNE
Lacrosse 5 rocket 3.0 20:31:38 10° N 20:33:58 17° NNE 20:33:58 17° NNE
USA 186 3.8 20:36:22 13° N 20:36:22 13° N 20:36:41 10° N
SAR-Lupe-1 4.1 20:35:10 54° ENE 20:35:10 54° ENE 20:38:36 10° N
Delta 2 Rocket 4.5 20:35:21 10° W 20:39:45 36° SSW 20:41:01 30° S
CZ-2D R/B 3.8 20:38:55 15° S 20:41:59 57° W 20:45:48 10° NNW
GP-B 3.1 20:38:09 10° S 20:42:35 85° W 20:47:02 10° N
Cosmos 1818 3.6 20:37:36 10° NNW 20:43:03 78° WSW 20:45:51 29° SSE
Cosmos 1269 Rocket 4.0 20:40:44 10° NNW 20:46:02 86° WSW 20:48:47 29° SSE
Cosmos 1766 Rocket 3.5 20:41:36 10° N 20:46:06 85° W 20:48:16 30° S
Cosmos-2242 3.2 20:42:57 10° SSW 20:47:10 68° W 20:51:25 10° N
Delta 168 4.3 20:45:34 10° WSW 20:47:54 21° SSW 20:47:54 21° SSW
Resurs 01 Rocket 3.1 20:46:24 10° SSW 20:50:26 36° W 20:54:30 10° NNW
Cosmos 2016 Rocket 3.8 20:52:08 10° S 20:58:20 70° E 21:04:28 10° N
Cosmos 158 Rocket 4.0 20:53:46 10° NNW 20:58:57 79° WSW 21:00:40 44° S
Cosmos 1470 4.1 20:59:59 10° SSW 21:03:45 40° W 21:07:31 10° N
Cosmos 1725 Rocket 4.1 21:08:00 52° ENE 21:08:00 52° ENE 21:13:22 10° NNE
H-2A R/B (2) 3.0 21:03:54 10° WSW 21:07:22 41° S 21:08:06 40° SSE
Aurora 2 Rocket 3.9 21:02:25 10° WSW 21:08:34 37° S 21:08:34 37° S
USA 215 3.2 21:02:24 10° NE 21:08:57 81° NW 21:15:28 10° SW
Cosmos 1833 Rocket 2.9 21:06:35 10° NNW 21:12:09 65° WSW 21:13:41 46° SSW
Cosmos 1743 Rocket 4.4 21:12:57 10° N 21:16:07 46° NNW 21:16:07 46° NNW
Cosmos 1340 Rocket 4.1 21:15:46 10° NNW 21:18:37 39° NW 21:18:37 39° NW
SL-08 R/B 4.4 21:18:13 46° S 21:20:17 88° E 21:26:43 10° N
ATLAS 5 CENTAUR R/B 4.1 21:19:20 10° W 21:23:00 22° NW 21:26:55 10° N
Envisat 3.4 21:26:09 55° WSW 21:26:30 56° W 21:31:29 10° NNW
Tsikada Rocket 4.5 21:26:03 10° N 21:30:36 47° NNE 21:30:36 47° NNE
H-2A R/B 4.5 21:42:52 12° NNE 21:42:52 12° NNE 21:43:23 10° NNE
ERS-1 Rocket 4.2 21:43:18 37° NNW 21:43:18 37° NNW 21:46:20 10° NNW
Cosmos 2082 Rocket 4.0 21:45:43 10° NW 21:50:13 25° WSW 21:51:42 22° SW
